DELTA 1 DEB, 29183

Orbit data source: Space-Track

DELTA 1 DEB, 29183 is space debris in LEO originally from a launch on Thu, 11 Jan 1968 UTC launched from the Air Force Western Test Range (AFWTR). Debris objects in space refer to the collection of defunct objects orbiting the Earth. Examples of debris include non-operational satellites, rocket bodies, and fragments generated from explosions, collisions, or faulty payload assembly.

Loading next visibility...
Identifier
29183, 1968-002G
Orbit
LEO
Last TLE update
1 day ago
Origin
Manufacturer
Unknown
Mission
Spacecraft
Bus & Motor
Unknown
Mass
Unknown
Launch date (UTC)
1968-01-11 (57 years ago)
Launch vehicle
Unknown
Launch site
Air Force Western Test Range (AFWTR)
Object type
Payload
Rocket body
Debris
Shape & HBR
Unknown
Radar Cross Section
Small (<0.1 m²)

Expand to show TLE details & history

TLE from 1 day ago
0 DELTA 1 DEB
1 29183U 68002G   25166.21586560  .00001547  00000-0  27085-2 0  9993
2 29183 105.8028 149.4593 0229631 239.3324 139.3042 13.36863032 42466
Epoch: 2025-06-15T05:10Z
TLE epoch observation values (Epoch: 2025-06-15T05:10:50.787Z)
Latitude
19.52142°
Longitude
162.27354°
Altitude
1,255.266 km
Speed
7.165 km/s
True Right ascension
09h 34m 55s
True Declination
19° 25' 13"
Sunlit
Object was in daylight at epoch
Visualization orbit readout
Latitude
-65.85582°
Longitude
-48.87434°
Altitude
978.539 km
Speed
7.444 km/s
Apparent Right ascension
14h 02m 08s
Apparent Declination
-68° 13' 12"
Sunlit
Object is in full shadow
Visualization observer readout
Local Sidereal Time
23:31:50
Azimuth
203.374° SW
Elevation
-55.225°
Doppler factor
1
Orbital elements
Apogee altitude
1,290.859 km
Perigee altitude
946.557 km
Semi-major axis
7,496.845 km
Eccentricity
0.02296
Inclination
105.8028°
RAAN
149.4593°
Arg. of periapsis
239.3324°
True anomaly
Unknown
Mean anomaly
139.3042°
Eccentric anomaly
Unknown
Mean motion
3.34369 °/min
Orbital period
107.67 mins
BSTAR
0.0027085
Loading maneuver chart data...
Loading SW <> Apogee altitude chart data...
Loading historical data...
Loading historical data...
Loading historical data...
Loading historical data...
Loading historical data...
Loading historical data...
Loading historical data...

DELTA 1 DEB Visibility forecast

Observer location: undefined°, undefined°

Span
Click to sort rows by Start time (UTC) header in descending order
Start Az.
Max El. time (UTC)
Max El. Az.
Max El.
End time (UTC)
End Az.
9 mins2025-06-16 13:59:07.528Z354.584° N2025-06-16 14:04:07.528Z307.592° NW19.401°2025-06-16 14:08:07.528Z270.087° WNW
9 mins2025-06-16 20:47:07.528Z89.391° E2025-06-16 20:51:07.528Z52.268° ENE21.692°2025-06-16 20:56:07.528Z5.785° NNE
13 mins2025-06-16 22:30:07.528Z157.592° S2025-06-16 22:36:07.528Z301.874° NW44.827°2025-06-16 22:43:07.528Z336.549° NNW
7 mins2025-06-17 00:19:07.528Z237.846° WSW2025-06-17 00:22:07.528Z264.68° W15.99°2025-06-17 00:26:07.528Z297.908° NW
10 mins2025-06-17 11:36:07.528Z41.562° NE2025-06-17 11:41:07.528Z113.005° SE35.866°2025-06-17 11:46:07.528Z175.375° S
|